TimeMST,TemperatureF,Dew PointF,Humidity,Sea Level PressureIn,VisibilityMPH,Wind Direction,Wind SpeedMPH,Gust SpeedMPH,PrecipitationIn,Events,Conditions,WindDirDegrees,DateUTC
12:53 AM,34.0,3.0,27,30.15,10.0,WSW,4.6,-,N/A,,Clear,250,2013-01-04 07:53:00
1:53 AM,30.9,3.9,32,30.15,10.0,South,5.8,-,N/A,,Clear,190,2013-01-04 08:53:00
2:53 AM,28.9,5.0,36,30.14,10.0,South,6.9,-,N/A,,Clear,180,2013-01-04 09:53:00
3:53 AM,30.0,5.0,35,30.12,10.0,Calm,Calm,-,N/A,,Clear,0,2013-01-04 10:53:00
4:53 AM,28.0,5.0,38,30.14,10.0,Calm,Calm,-,N/A,,Clear,0,2013-01-04 11:53:00
5:53 AM,19.0,3.9,52,30.15,10.0,North,5.8,-,N/A,,Clear,350,2013-01-04 12:53:00
6:53 AM,24.1,3.9,42,30.14,10.0,Calm,Calm,-,N/A,,Clear,0,2013-01-04 13:53:00
7:53 AM,27.0,7.0,43,30.10,10.0,SW,6.9,-,N/A,,Clear,220,2013-01-04 14:53:00
8:53 AM,36.0,6.1,29,30.09,10.0,NNW,12.7,-,N/A,,Clear,330,2013-01-04 15:53:00
9:53 AM,35.1,10.0,35,30.12,10.0,NNW,9.2,-,N/A,,Clear,330,2013-01-04 16:53:00
10:53 AM,39.9,12.9,33,30.12,10.0,NNW,10.4,-,N/A,,Clear,330,2013-01-04 17:53:00
11:53 AM,39.9,14.0,35,30.11,10.0,NW,4.6,-,N/A,,Clear,320,2013-01-04 18:53:00
12:53 PM,43.0,12.9,30,30.05,10.0,North,5.8,-,N/A,,Clear,10,2013-01-04 19:53:00
1:53 PM,42.1,15.1,34,30.07,10.0,North,4.6,-,N/A,,Clear,360,2013-01-04 20:53:00
2:53 PM,39.9,15.1,36,30.08,10.0,North,8.1,-,N/A,,Clear,360,2013-01-04 21:53:00
3:53 PM,37.9,16.0,41,30.10,10.0,North,8.1,-,N/A,,Clear,350,2013-01-04 22:53:00
4:53 PM,33.1,12.0,42,30.14,10.0,NW,6.9,-,N/A,,Clear,320,2013-01-04 23:53:00
5:53 PM,32.0,10.9,42,30.18,10.0,NW,11.5,-,N/A,,Clear,310,2013-01-05 00:53:00
6:53 PM,24.1,10.0,55,30.19,10.0,West,4.6,-,N/A,,Clear,260,2013-01-05 01:53:00
7:53 PM,26.1,8.1,47,30.17,10.0,Variable,4.6,-,N/A,,Clear,0,2013-01-05 02:53:00
8:53 PM,34.0,8.1,34,30.12,10.0,SW,4.6,-,N/A,,Clear,220,2013-01-05 03:53:00
9:53 PM,28.9,8.1,41,30.14,10.0,WSW,5.8,-,N/A,,Clear,250,2013-01-05 04:53:00
10:53 PM,28.0,8.1,43,30.14,10.0,WNW,5.8,-,N/A,,Clear,290,2013-01-05 05:53:00
11:53 PM,25.0,8.1,49,30.15,10.0,Calm,Calm,-,N/A,,Clear,0,2013-01-05 06:53:00